Laramie, WY

9:36 AM MDT on August 17, 2017 (GMT -0600)
Laramie Regional

Weather History for KLAR - June, 2013

Change the Weather History Date:

Sunday, June 30, 2013

  Actual Average Record
Temperature  
Mean Temperature 67 °F 62 °F  
Max Temperature 80 °F 78 °F 92 °F (1990)
Min Temperature 53 °F 46 °F 33 °F (1968)
Degree Days  
Heating Degree Days 0 4  
Month to date heating degree days 103 240  
Since 1 June heating degree days 103 241  
Since 1 July heating degree days 8570 8830  
Cooling Degree Days 2 1  
Month to date cooling degree days 36 7  
Year to date cooling degree days 36 7  
Since 1 June cooling degree days 36 7  
Growing Degree Days 16 (Base 50)    
Moisture  
Dew Point 51 °F    
Average Humidity 62    
Maximum Humidity 93    
Minimum Humidity 30    
Precipitation  
Precipitation 0.13 in 0.04 in 0.39 in (1984)
Month to date precipitation 0.44 1.54  
Year to date precipitation 3.41 5.49  
Sea Level Pressure  
Sea Level Pressure 30.11 in    
Wind  
Wind Speed 7 mph (ESE)    
Max Wind Speed 23 mph    
Max Gust Speed 28 mph    
Visibility 9 miles    
Events Rain , Thunderstorm    
T = Trace of Precipitation, MM = Missing Value Source: NWS Daily Summary

Daily Weather History Graph

Daily Weather History Graph

Search for Another Location

Airport or City:

Trip Planner

Search our weather history database for the weather conditions in past years. The results will help you decide how hot, cold, wet, or windy it might be!

Date:

Astronomy

Jun. 30, 2013 Rise Set
Actual Time 5:32 AM MDT 8:39 PM MDT
Civil Twilight 4:59 AM MDT 9:13 PM MDT
Nautical Twilight 4:16 AM MDT 9:56 PM MDT
Astronomical Twilight 3:24 AM MDT 10:47 PM MDT
Moon 12:36 AM MDT (6/30) 1:54 PM MDT (6/30)
Length of Visible Light 16h 14m
Length of Day
15h 06m
Last Quarter, 45% of the Moon is Illuminated
Jun 30
Last Quarter
Jul 8
New
Jul 15
First Quarter
Jul 22
Full
Jul 29
Last Quarter

Hourly Weather History & Observations

Time (MDT) Temp. Dew Point Humidity Pressure Visibility Wind Dir Wind Speed Gust Speed Precip Events Conditions
12:44 AM 60.8 °F 50.0 °F 68% 30.37 in 10.0 mi Variable 3.5 mph - 0.13 in Rain Light Rain
12:53 AM 60.1 °F 51.1 °F 72% 30.01 in 10.0 mi ESE 12.7 mph 18.4 mph 0.13 in Rain , Thunderstorm Light Rain
1:15 AM 60.8 °F 51.8 °F 72% 30.39 in 10.0 mi North 8.1 mph - 0.00 in   Overcast
1:53 AM 57.9 °F 52.0 °F 81% 30.02 in 9.0 mi Variable 3.5 mph - 0.00 in Rain Light Rain
2:53 AM 57.9 °F 53.1 °F 84% 29.97 in 10.0 mi SSE 13.8 mph - 0.01 in   Partly Cloudy
3:53 AM 57.0 °F 52.0 °F 83% 29.95 in 10.0 mi South 12.7 mph - N/A   Clear
4:53 AM 55.9 °F 53.1 °F 90% 29.97 in 10.0 mi Calm Calm - N/A   Clear
5:53 AM 55.0 °F 52.0 °F 89% 29.99 in 10.0 mi ENE 6.9 mph - N/A   Mostly Cloudy
6:53 AM 57.0 °F 52.0 °F 83% 29.99 in 10.0 mi ESE 3.5 mph - N/A   Partly Cloudy
7:53 AM 60.1 °F 51.1 °F 72% 29.99 in 10.0 mi Calm Calm - N/A   Clear
8:53 AM 62.1 °F 51.1 °F 67% 30.00 in 10.0 mi Calm Calm - N/A   Partly Cloudy
9:53 AM 66.0 °F 51.1 °F 59% 30.00 in 10.0 mi NE 5.8 mph - N/A   Partly Cloudy
10:53 AM 70.0 °F 50.0 °F 49% 29.98 in 10.0 mi North 4.6 mph - N/A   Clear
11:53 AM 73.0 °F 48.0 °F 41% 29.98 in 10.0 mi NE 9.2 mph - N/A   Clear
12:53 PM 73.0 °F 46.9 °F 39% 29.98 in 10.0 mi ENE 6.9 mph 20.7 mph N/A   Mostly Cloudy
1:53 PM 73.9 °F 45.0 °F 35% 29.99 in 10.0 mi Calm Calm - N/A   Partly Cloudy
2:53 PM 78.1 °F 44.1 °F 30% 29.96 in 10.0 mi NNE 8.1 mph 19.6 mph N/A   Partly Cloudy
3:39 PM 73.4 °F 48.2 °F 41% 30.31 in 10.0 mi SE 20.7 mph 26.5 mph N/A   Mostly Cloudy
3:53 PM 75.0 °F 48.0 °F 38% 29.98 in 10.0 mi ESE 18.4 mph - N/A   Mostly Cloudy
4:31 PM 73.4 °F 46.4 °F 38% 30.30 in 10.0 mi SE 12.7 mph - N/A Thunderstorm Mostly Cloudy
4:53 PM 70.0 °F 50.0 °F 49% 29.99 in 10.0 mi ESE 13.8 mph - 0.00 in Rain , Thunderstorm Light Rain
5:04 PM 68.0 °F 53.6 °F 60% 30.30 in 1.8 mi ESE 8.1 mph - 0.01 in Rain , Thunderstorm Light Thunderstorms and Rain
5:17 PM 62.6 °F 57.2 °F 82% 30.31 in 3.0 mi WNW 12.7 mph 18.4 mph 0.06 in Rain , Thunderstorm Rain
5:21 PM 64.4 °F 55.4 °F 73% 30.33 in 4.0 mi NNW 8.1 mph 18.4 mph 0.07 in Rain , Thunderstorm Thunderstorms and Rain
5:53 PM 63.0 °F 55.0 °F 75% 30.04 in 10.0 mi SE 8.1 mph - 0.12 in Rain , Thunderstorm Light Rain
6:15 PM 64.4 °F 53.6 °F 68% 30.32 in 10.0 mi ESE 10.4 mph - 0.00 in Rain , Thunderstorm Light Rain
6:33 PM 64.4 °F 53.6 °F 68% 30.32 in 10.0 mi ESE 8.1 mph - 0.00 in Thunderstorm Scattered Clouds
6:53 PM 66.0 °F 54.0 °F 65% 30.03 in 10.0 mi SE 10.4 mph - 0.00 in   Scattered Clouds
7:53 PM 63.0 °F 53.1 °F 70% 30.05 in 10.0 mi SE 9.2 mph - N/A   Mostly Cloudy
8:12 PM 62.6 °F 53.6 °F 72% 30.34 in 10.0 mi SE 9.2 mph - N/A Thunderstorm Partly Cloudy
8:27 PM 60.8 °F 53.6 °F 77% 30.35 in 10.0 mi ESE 10.4 mph - N/A   Clear
8:53 PM 60.1 °F 52.0 °F 75% 30.05 in 10.0 mi SE 10.4 mph - N/A   Clear
9:53 PM 57.9 °F 51.1 °F 78% 30.07 in 10.0 mi ESE 8.1 mph - N/A   Clear
10:53 PM 55.9 °F 51.1 °F 84% 30.06 in 10.0 mi SE 8.1 mph - N/A   Clear
11:53 PM 57.0 °F 50.0 °F 77% 30.04 in 10.0 mi South 6.9 mph - N/A   Clear